Stations météo

Publicité
Longyearbyen/Svalbard Intl, Norvège (1008): Température de l'air & dewpoint: 14.04.2019 23:00:00 - 20.04.2019 23:00:00 (CEST)Longyearbyen/Svalbard Intl, Norvège (1008): Vitesse du vent & gusts: 14.04.2019 23:00:00 - 20.04.2019 23:00:00 (CEST)Longyearbyen/Svalbard Intl, Norvège (1008): Direction du vent: 14.04.2019 23:00:00 - 20.04.2019 23:00:00 (CEST)Longyearbyen/Svalbard Intl, Norvège (1008): reduced air pressure: 14.04.2019 23:00:00 - 20.04.2019 23:00:00 (CEST)Longyearbyen/Svalbard Intl, Norvège (1008): visibility: 14.04.2019 23:00:00 - 20.04.2019 23:00:00 (CEST)
Date & Time tt [°C] td [°C] ff [km/h] ff [knt] fx [km/h] fx [knt] dd ppp [hPa] vv [km]
20.04.2019 23:00:00 -1,0 -3,0 34 18 - - ESE - 2,0
20.04.2019 22:00:00 -1,1 -2,5 35 19 46 25 SE 999,5 2,5
20.04.2019 21:00:00 -1,0 -2,7 34 19 43 23 ESE 1000,5 3,0
20.04.2019 20:00:00 -0,8 -2,8 24 13 - - SE 1001,3 3,5
20.04.2019 19:00:00 -1,0 -2,5 34 18 40 22 ESE 1002,7 4,0
20.04.2019 18:00:00 -0,5 -2,0 28 15 34 18 E 1004,1 10
20.04.2019 17:00:00 -0,3 -2,1 4 2 9 5 - 1005,4 10
20.04.2019 16:00:00 0,3 -2,9 8 4 13 7 N 1006,4 10
20.04.2019 15:00:00 -0,3 -3,0 2 1 21 11 - 1007,1 10
20.04.2019 14:00:00 -0,9 -3,4 16 8 - - N 1007,9 25
20.04.2019 13:00:00 -0,9 -3,4 8 4 16 8 N 1008,2 10
20.04.2019 12:00:00 -1,0 -3,1 11 6 14 8 N 1008,5 10
20.04.2019 11:00:00 -0,3 -3,0 4 2 13 7 - 1008,1 10
20.04.2019 10:00:00 -1,4 -3,1 0 0 18 10 N 1008,0 10
20.04.2019 09:00:00 -1,8 -3,3 0 0 17 9 N 1008,1 -
20.04.2019 08:00:00 -1,7 -3,4 11 6 - - NNW 1007,7 10
20.04.2019 07:00:00 -1,2 -3,1 13 7 19 10 N 1006,8 10
20.04.2019 06:00:00 -1,2 -3,1 13 7 19 10 N 1006,4 10
20.04.2019 05:00:00 -1,0 -2,1 21 11 29 16 NNE 1005,2 10
20.04.2019 04:00:00 -0,6 -1,1 13 7 32 17 N 1003,8 10
20.04.2019 03:00:00 0,1 -0,5 0 0 6 4 N 1002,7 5
20.04.2019 02:00:00 0,5 -0,1 4 2 - - - 1001,8 10
20.04.2019 01:00:00 0,4 0,0 8 4 10 6 E 1001,6 10
20.04.2019 00:00:00 0,2 -0,4 9 5 16 9 W 1001,7 7
19.04.2019 23:00:00 0,7 0,0 11 6 15 8 W 1001,8 10
19.04.2019 22:00:00 1,0 0,3 13 7 15 8 W 1002,0 10
19.04.2019 21:00:00 1,8 0,6 4 2 9 5 SW 1002,4 10
19.04.2019 20:00:00 1,7 0,8 0 0 - - N 1003,1 10
19.04.2019 19:00:00 2,1 0,6 11 6 16 9 W 1004,4 10
19.04.2019 18:00:00 4,0 1,0 10 6 19 11 E 1005,0 10
19.04.2019 17:00:00 2,2 0,4 9 5 13 7 E 1005,7 10
19.04.2019 16:00:00 3,4 0,5 5 3 8 4 E 1006,9 10
19.04.2019 15:00:00 3,0 0,7 5 3 16 8 - 1008,1 10
19.04.2019 14:00:00 3,3 0,7 9 5 - - ESE 1009,1 10
19.04.2019 13:00:00 3,7 0,6 4 2 11 6 - 1010,0 10
19.04.2019 12:00:00 3,7 0,4 21 11 26 14 SSW 1010,6 10
19.04.2019 11:00:00 3,7 0,2 16 9 22 12 SSW 1011,2 10
19.04.2019 10:00:00 3,1 0,3 15 8 24 13 SW 1011,6 10
19.04.2019 09:00:00 2,8 0,7 5 3 19 10 - 1011,9 10
19.04.2019 08:00:00 4,1 0,6 22 12 - - SW 1011,7 10
19.04.2019 07:00:00 4,0 0,5 26 14 49 27 SW 1011,7 10
19.04.2019 06:00:00 3,6 0,5 39 21 52 28 SW 1011,6 10
19.04.2019 05:00:00 3,4 0,1 31 17 49 26 SW 1012,0 10
19.04.2019 04:00:00 3,6 0,0 26 14 42 23 SW 1012,4 10
19.04.2019 03:00:00 3,8 0,0 24 13 46 25 SW 1012,4 10
19.04.2019 02:00:00 3,9 -0,3 29 16 - - SW 1012,5 10
19.04.2019 01:00:00 4,1 0,1 29 16 52 28 SSW 1012,4 10
19.04.2019 00:00:00 4,1 -0,7 29 16 44 24 SW 1012,8 10
18.04.2019 23:00:00 3,9 -1,4 26 14 44 24 SW 1013,1 10
18.04.2019 22:00:00 3,4 -0,8 34 18 43 23 SW 1013,6 10
18.04.2019 21:00:00 3,7 0,2 29 16 45 24 SW 1013,7 10
18.04.2019 20:00:00 4,0 0,0 28 15 - - SW 1013,5 10
18.04.2019 19:00:00 4,2 0,5 28 15 41 22 SW 1014,2 10
18.04.2019 18:00:00 4,0 0,5 13 7 42 23 WSW 1014,4 10
18.04.2019 17:00:00 3,1 0,3 21 11 40 21 SW 1014,8 10
18.04.2019 16:00:00 3,6 0,0 21 11 34 18 WSW 1015,0 10
18.04.2019 15:00:00 3,5 0,0 22 12 39 21 SW 1014,6 10
18.04.2019 14:00:00 3,6 0,1 24 13 - - WSW 1014,8 10
18.04.2019 13:00:00 3,6 0,3 22 12 - - WSW 1015,1 10
18.04.2019 12:00:00 3,7 0,2 22 12 35 19 WSW 1015,1 10
18.04.2019 11:00:00 3,4 0,3 22 12 40 22 SW 1015,3 10
18.04.2019 10:00:00 3,4 0,3 31 17 46 25 SW 1015,3 10
18.04.2019 09:00:00 2,8 0,4 31 17 51 27 SW 1015,2 10
18.04.2019 08:00:00 2,6 0,3 29 16 - - SSW 1015,3 10
18.04.2019 07:00:00 2,4 0,6 18 10 49 26 SW 1015,6 10
18.04.2019 06:00:00 2,5 0,9 14 7 40 22 WSW 1016,1 -
18.04.2019 05:00:00 2,3 0,5 26 14 53 29 SW 1016,5 9
18.04.2019 04:00:00 2,9 1,0 18 10 47 25 SW 1016,5 9
18.04.2019 03:00:00 3,4 1,3 34 18 67 36 SSW 1016,7 9
18.04.2019 02:00:00 3,9 1,3 28 15 - - SSW 1016,6 10
18.04.2019 01:00:00 3,7 0,8 31 17 51 28 SW 1017,1 10
18.04.2019 00:00:00 3,8 0,7 29 16 42 23 SW 1017,2 10
17.04.2019 23:00:00 3,4 0,5 31 17 46 25 SW 1017,4 10
17.04.2019 22:00:00 3,8 0,5 26 14 42 23 SW 1017,4 10
17.04.2019 21:00:00 3,6 0,5 28 15 42 23 SW 1017,8 10
17.04.2019 20:00:00 3,4 0,6 16 9 - - SW 1018,3 10
17.04.2019 19:00:00 3,1 0,5 18 10 26 14 WSW 1018,7 10
17.04.2019 18:00:00 1,9 0,3 15 8 24 13 WSW 1019,1 10
17.04.2019 17:00:00 1,2 -0,1 9 5 39 21 WSW 1019,5 10
17.04.2019 16:00:00 2,9 -0,2 18 10 37 20 SW 1019,8 10
17.04.2019 15:00:00 2,5 -1,6 13 7 28 15 SW 1019,6 10
17.04.2019 14:00:00 1,9 -2,2 13 7 - - SW 1019,8 10
17.04.2019 13:00:00 1,6 -2,3 13 7 21 11 SW 1019,8 10
17.04.2019 12:00:00 2,5 -2,2 13 7 18 10 WSW 1019,5 10
17.04.2019 11:00:00 1,2 -1,3 21 11 29 16 WSW 1019,2 10
17.04.2019 10:00:00 1,7 -2,2 15 8 - - SW 1018,9 10
17.04.2019 09:00:00 2,2 -2,9 21 11 - - WSW 1018,0 10
17.04.2019 08:00:00 1,8 -2,7 28 15 - - SW 1017,4 10
17.04.2019 07:00:00 1,5 -3,0 29 16 54 29 WSW 1017,0 10
17.04.2019 06:00:00 0,9 -1,6 34 18 54 29 SW 1016,7 10
17.04.2019 05:00:00 0,8 -1,3 29 16 49 26 WSW 1016,2 10
17.04.2019 04:00:00 1,1 -0,5 39 21 56 30 WSW 1015,4 10
17.04.2019 03:00:00 1,6 0,3 35 19 52 28 WSW 1014,8 10
17.04.2019 02:00:00 1,6 0,1 24 13 - - SW 1014,1 10
17.04.2019 01:00:00 1,7 0,2 26 14 42 23 WSW 1013,5 10
17.04.2019 00:00:00 2,4 -0,2 35 19 46 25 WSW 1013,1 10
16.04.2019 23:00:00 3,0 -0,3 22 12 37 20 WSW 1013,0 10
16.04.2019 22:00:00 2,8 -0,1 18 10 34 19 SW 1013,1 10
16.04.2019 21:00:00 3,0 -0,3 22 12 36 20 SW 1013,3 10
16.04.2019 20:00:00 3,4 -0,6 24 13 - - SSW 1013,7 10
16.04.2019 19:00:00 3,3 -0,1 22 12 40 22 SW 1014,4 10
16.04.2019 18:00:00 2,8 0,0 26 14 42 23 SW 1015,3 10
16.04.2019 17:00:00 3,1 -0,2 31 17 56 31 SW 1015,8 10
16.04.2019 16:00:00 2,8 0,0 37 20 63 34 SW 1016,0 9
16.04.2019 15:00:00 2,9 -0,4 41 22 57 31 SW 1016,1 10
16.04.2019 14:00:00 2,6 -0,7 37 20 - - SW 1017,0 10
16.04.2019 13:00:00 2,4 -0,2 26 14 54 29 SW 1017,8 10
16.04.2019 12:00:00 2,3 -0,1 30 16 53 29 SW 1017,6 10
16.04.2019 11:00:00 2,2 0,1 24 13 64 34 SW 1017,2 8
16.04.2019 10:00:00 2,2 0,0 39 21 69 38 SSW 1016,9 8
16.04.2019 09:00:00 2,1 0,2 42 23 63 34 SW 1016,6 7
16.04.2019 08:00:00 2,0 0,4 41 22 - - WSW 1016,6 6
16.04.2019 07:00:00 1,7 0,4 41 22 61 33 WSW 1016,3 8
16.04.2019 06:00:00 2,3 0,2 39 21 74 40 SW 1016,8 10
16.04.2019 05:00:00 2,5 0,2 42 23 69 37 SW 1016,5 10
16.04.2019 04:00:00 2,6 0,2 37 20 58 31 SW 1016,7 10
16.04.2019 03:00:00 2,8 0,0 42 23 58 31 SW 1017,1 10
16.04.2019 02:00:00 2,5 -0,3 34 18 - - SW 1017,3 10
16.04.2019 01:00:00 2,5 -0,3 29 16 47 26 SSW 1017,7 10
16.04.2019 00:00:00 2,6 -0,1 22 12 43 23 SW 1018,1 10
15.04.2019 23:00:00 2,9 0,0 22 12 42 23 SW 1018,3 10
15.04.2019 22:00:00 2,7 0,0 23 12 51 28 SW 1018,6 6
15.04.2019 21:00:00 0,8 0,0 22 12 38 21 WSW 1019,1 7
15.04.2019 20:00:00 -1,3 -2,2 0 0 - - N 1019,7 4,0
15.04.2019 19:00:00 -2,2 -3,2 0 0 5 3 N 1019,8 6
15.04.2019 18:00:00 -2,4 -3,4 4 2 10 5 - 1020,2 4,0
15.04.2019 17:00:00 -2,5 -3,8 2 1 10 5 - 1020,4 10
15.04.2019 16:00:00 -2,6 -3,8 9 5 16 9 N 1020,8 -
15.04.2019 15:00:00 -2,1 -3,5 4 2 8 4 - 1021,2 10
15.04.2019 14:00:00 -2,2 -4,1 9 5 - - ESE 1021,6 10
15.04.2019 13:00:00 -2,8 -5,7 9 5 26 14 ESE 1021,8 10
15.04.2019 12:00:00 -3,4 -6,8 13 7 28 15 ESE 1021,8 10
15.04.2019 11:00:00 -3,1 -6,8 18 10 29 16 SSW 1021,8 10
15.04.2019 10:00:00 -3,2 -6,7 22 12 35 19 SSW 1021,1 10
15.04.2019 09:00:00 -3,3 -6,8 22 12 48 26 SW 1020,3 10
15.04.2019 08:00:00 -4,0 -6,9 31 17 - - WSW 1019,8 10
15.04.2019 07:00:00 -4,1 -6,8 29 16 42 23 SW 1019,0 -
15.04.2019 06:00:00 -3,9 -6,8 26 14 51 28 SW 1018,1 10
15.04.2019 05:00:00 -3,7 -6,3 22 12 49 26 SW 1017,3 10
15.04.2019 04:00:00 -3,7 -6,6 29 16 50 27 WSW 1016,4 10
15.04.2019 03:00:00 -3,2 -6,1 41 22 58 32 WSW 1015,4 10
15.04.2019 02:00:00 -2,7 -5,0 44 24 - - W 1013,9 10
15.04.2019 01:00:00 -2,2 -4,4 42 23 61 33 WSW 1013,0 10
15.04.2019 00:00:00 -1,2 -3,3 31 17 42 23 WSW 1012,5 10
14.04.2019 23:00:00 -1,3 -3,7 41 22 52 28 WSW 1012,2 10

tt = Température de l'air
td = dewpoint
ff = Vitesse du vent
fx = gusts
dd = Direction du vent
ppp = reduced air pressure
vv = visibility

stations d'obs. à proximité